"2010-11-02 00:00:00",299821,4.202,127.6,8.54,1.312,12.1,104.1963,10.02,11.03,40.94,0,110.3,13.31,10.80,89.6
"2010-11-02 00:00:30",299822,4.477,126.3,4.308,1.182,12.75,104.1963,10.02,11.09,41.07,0,110.3,13.31,10.80,88.3
"2010-11-02 00:01:00",299823,3.561,121.1,3.584,0.718,10.47,104.1963,10.02,11.03,41.09,0,110.2,13.31,10.80,83.1
"2010-11-02 00:01:30",299824,3.199,125.1,4.098,0.499,10.75,104.1969,10.02,10.95,41,0,110.2,13.35,10.80,87.1
"2010-11-02 00:02:00",299825,3.959,126,6.114,1.206,11.8,104.1983,10.02,10.93,40.69,0,110.2,13.32,10.81,88.0
"2010-11-02 00:02:30",299826,3.422,126,6.565,1.07,11.82,104.2027,10.03,11.04,40.98,0,110.2,13.33,10.82,88.0
"2010-11-02 00:03:00",299827,4.796,131.5,6.468,1.247,13.5,104.2066,10.04,11.06,41.07,0,110.2,13.33,10.83,93.5
"2010-11-02 00:03:30",299828,4.588,132.1,7.134,1.336,14.08,104.2128,10.06,11.18,41.2,0,110.2,13.33,10.85,94.1
"2010-11-02 00:04:00",299829,3.25,125.1,5.837,1.025,11.66,104.2126,10.06,11.02,41.01,0,110.2,13.33,10.84,87.1
"2010-11-02 00:04:30",299830,3.911,126.5,6.601,1.289,12.8,104.2157,10.07,11.05,41.04,0,110.2,13.33,10.85,88.5
"2010-11-02 00:05:00",299831,2.668,120.2,3.759,0.461,10.71,104.2213,10.08,11.03,41.02,0,110.2,13.36,10.87,82.2
"2010-11-02 00:05:30",299832,2.881,122.2,5.042,0.92,10.75,104.2228,10.08,10.93,40.8,0,110.2,13.33,10.87,84.2
"2010-11-02 00:06:00",299833,2.5,121.2,1.587,0.094,10.2,104.2234,10.09,10.91,40.71,0,110.2,13.36,10.87,83.2
"2010-11-02 00:06:30",299834,2.862,127.8,6.57,0.896,11.51,104.2234,10.09,11.06,40.69,0,110.2,13.33,10.87,89.8
"2010-11-02 00:07:00",299835,3.323,127.9,7.475,1.234,12.32,104.2231,10.08,10.99,40.95,0,110.2,13.33,10.87,89.9
"2010-11-02 00:07:30",299836,4.337,135.4,6.264,1.226,13.95,104.2186,10.07,11.05,40.96,0,110.2,13.33,10.86,97.4
"2010-11-02 00:08:00",299837,4.16,128.7,8.75,1.382,12.9,104.2025,10.03,11.01,41.31,0,110.2,13.34,10.82,90.7
"2010-11-02 00:08:30",299838,2.668,121.3,1.962,0.11,10.7,104.1977,10.02,11.09,41.44,0,110.2,13.37,10.81,83.3
"2010-11-02 00:09:00",299839,4.008,134.3,6.208,1.389,12.19,104.1977,10.02,10.93,41.47,0,110.2,13.34,10.81,96.3
"2010-11-02 00:09:30",299840,2.866,129,5.047,0.792,10.98,104.1969,10.02,11.05,41.59,0,110.2,13.34,10.80,91.0
"2010-11-02 00:10:00",299841,2.841,125.5,2.08,0.094,10.15,104.183,9.98,10.86,41.51,0,110.2,13.37,10.77,87.5
"2010-11-02 00:10:30",299842,3.744,133.4,6.787,1.256,11.69,104.1703,9.95,10.88,41.67,0,110.2,13.34,10.74,95.4
"2010-11-02 00:11:00",299843,3.991,131.5,6.203,1.318,13,104.1638,9.93,10.99,41.88,0,110.2,13.34,10.72,93.5
"2010-11-02 00:11:30",299844,4.345,135.8,6.026,1.366,13.47,104.1638,9.93,10.98,41.81,0,110.2,13.34,10.72,97.8
"2010-11-02 00:12:00",299845,3.957,133.9,6.806,1.275,13.41,104.1638,9.93,11.05,41.84,0,110.2,13.34,10.72,95.9
"2010-11-02 00:12:30",299846,3.914,135.3,7.046,1.329,12.81,104.1638,9.93,10.99,41.61,0,110.2,13.34,10.72,97.3
"2010-11-02 00:13:00",299847,2.939,133.8,6.184,0.952,11.8,104.1638,9.93,11.01,41.6,0,110.2,13.34,10.72,95.8
"2010-11-02 00:13:30",299848,3.007,131.1,7.427,1.164,11.16,104.1638,9.93,10.83,41.62,0,110.2,13.34,10.72,93.1
"2010-11-02 00:14:00",299849,2.363,133.6,1.952,0.053,10.06,104.1638,9.93,10.83,41.5,0,110.2,13.37,10.72,95.6
"2010-11-02 00:14:30",299850,3.371,139.8,7.563,1.285,12.16,104.1638,9.93,10.97,41.59,0,110.2,13.34,10.72,101.8
"2010-11-02 00:15:00",299851,3.065,139.6,6.59,1.265,12.41,104.1638,9.93,10.98,41.63,0,110.2,13.34,10.72,101.6
"2010-11-02 00:15:30",299852,2.355,127.6,2.446,0.084,10.75,104.1647,9.94,10.89,41.61,0,110.2,13.37,10.72,89.6
"2010-11-02 00:16:00",299853,3.977,133.4,6.918,1.389,13.59,104.165,9.94,10.97,41.68,0,110.2,13.34,10.72,95.4
"2010-11-02 00:16:30",299854,3.302,132.9,6.182,1.251,12.39,104.1703,9.95,10.93,41.72,0,110.2,13.34,10.74,94.9
"2010-11-02 00:17:00",299855,3.631,133.4,6.009,1.358,12.47,104.1747,9.96,11.01,41.8,0,110.2,13.34,10.75,95.4
"2010-11-02 00:17:30",299856,3.721,133.2,7.698,1.34,12.55,104.1785,9.97,10.96,41.77,0,110.2,13.34,10.76,95.2
"2010-11-02 00:18:00",299857,2.609,127.3,1.055,0.063,10.18,104.1826,9.98,10.83,41.64,0,110.2,13.38,10.77,89.3
"2010-11-02 00:18:30",299858,3.507,132.4,7.472,1.235,11.97,104.19,10,10.88,41.71,0,110.1,13.34,10.79,94.4
"2010-11-02 00:19:00",299859,3.032,131,6.092,1.066,11.62,104.1915,10,10.96,41.8,0,110.1,13.34,10.79,93.0
"2010-11-02 00:19:30",299860,3.228,132,7.027,1.23,12.06,104.1942,10.01,10.92,41.77,0,110.1,13.34,10.80,94.0
"2010-11-02 00:20:00",299861,3.372,131.5,7.69,1.204,11.92,104.1957,10.01,10.87,41.71,0,110.1,13.35,10.80,93.5
"2010-11-02 00:20:30",299862,4.355,135.7,5.881,1.228,14.45,104.1881,10,11,41.83,0,110.1,13.35,10.78,97.7
"2010-11-02 00:21:00",299863,3.193,127.4,5.524,1.208,12.07,104.1774,9.97,10.92,41.78,0,110.1,13.35,10.75,89.4
"2010-11-02 00:21:30",299864,3.963,131.9,7.153,1.302,13.6,104.1698,9.95,11.01,41.89,0,110.1,13.35,10.74,93.9
"2010-11-02 00:22:00",299865,2.962,128,7.081,1.058,10.9,104.1661,9.94,10.81,41.7,0,110.1,13.35,10.73,90.0
"2010-11-02 00:22:30",299866,2.398,122.2,1.193,0.063,10.15,104.1653,9.94,10.79,41.66,0,110.1,13.39,10.72,84.2
"2010-11-02 00:23:00",299867,3.413,126.8,5.575,1.296,12.23,104.1653,9.94,10.94,41.78,0,110.1,13.35,10.72,88.8
"2010-11-02 00:23:30",299868,2.297,122.5,1.815,0.091,10.44,104.1653,9.94,10.86,41.74,0,110.1,13.39,10.72,84.5
"2010-11-02 00:24:00",299869,2.805,125.9,5.994,1.022,11.65,104.1653,9.94,10.95,41.82,0,110.1,13.35,10.72,87.9
"2010-11-02 00:24:30",299870,3.256,128.7,5.393,1.124,11.44,104.1653,9.94,10.84,41.84,0,110.1,13.35,10.72,90.7
"2010-11-02 00:25:00",299871,2.833,127.1,4.271,0.813,11.55,104.1653,9.94,10.97,42,0,110.1,13.35,10.72,89.1
"2010-11-02 00:25:30",299872,4.67,135.4,6.272,1.13,14.39,104.1653,9.94,10.96,42.04,0,110.1,13.35,10.72,97.4
"2010-11-02 00:26:00",299873,3.113,128.3,3.916,0.845,10.57,104.1605,9.92,10.88,42.04,0,110.1,13.35,10.71,90.3
"2010-11-02 00:26:30",299874,2.925,127,2.428,0.063,10.52,104.1514,9.9,10.81,42.01,0,110.1,13.39,10.69,89.0
"2010-11-02 00:27:00",299875,3.966,131.4,7.091,1.268,12.01,104.1469,9.89,10.86,42.07,0,110.1,13.35,10.68,93.4
"2010-11-02 00:27:30",299876,3.957,130.8,6.965,1.32,12.29,104.1384,9.87,10.9,42.16,0,110.1,13.36,10.65,92.8
"2010-11-02 00:28:00",299877,3.393,130.7,5.394,1.186,11.96,104.1317,9.85,10.91,42.16,0,110.1,13.36,10.64,92.7
"2010-11-02 00:28:30",299878,3.178,129.2,3.523,0.907,10.85,104.1314,9.85,10.81,42.08,0,110.1,13.36,10.64,91.2
"2010-11-02 00:29:00",299879,2.789,129.8,2.602,0.028,10.82,104.1314,9.85,10.88,42.17,0,110.1,13.39,10.64,91.8
"2010-11-02 00:29:30",299880,4.516,138.6,6.639,1.254,13.95,104.1314,9.85,10.99,42.22,0,110.1,13.36,10.64,100.6
"2010-11-02 00:30:00",299881,3.323,131.9,5.32,1.101,11.26,104.1314,9.85,10.82,42.11,0,110.1,13.36,10.64,93.9
"2010-11-02 00:30:30",299882,3.155,130.8,4.747,0.944,10.85,104.1314,9.85,10.79,42.08,0,110.1,13.36,10.64,92.8
"2010-11-02 00:31:00",299883,3.367,132.4,5.008,1.096,11.14,104.1317,9.85,10.82,42.09,0,110.1,13.36,10.64,94.4
"2010-11-02 00:31:30",299884,3.861,134.7,6.932,1.326,12.17,104.1326,9.85,10.81,42.02,0,110.1,13.36,10.64,96.7
"2010-11-02 00:32:00",299885,3.857,135.1,6.169,1.342,12.5,104.1361,9.86,10.9,42.06,0,110.1,13.36,10.65,97.1
"2010-11-02 00:32:30",299886,3.632,135.7,7.046,1.318,12.65,104.1387,9.87,10.87,42.08,0,110.1,13.36,10.66,97.7
"2010-11-02 00:33:00",299887,2.562,131.4,1.264,0.058,10.64,104.1399,9.87,10.75,42,0,110.1,13.39,10.66,93.4
"2010-11-02 00:33:30",299888,4.07,137.7,6.591,1.417,13.57,104.1428,9.88,11.02,42.19,0,110.1,13.36,10.67,99.7
"2010-11-02 00:34:00",299889,4.684,138.9,6.043,1.18,14.08,104.1478,9.89,10.95,42.1,0,110.1,13.36,10.68,100.9
"2010-11-02 00:34:30",299890,2.791,127.1,1.602,0.478,10.26,104.1499,9.9,10.74,41.86,0,110.1,13.36,10.68,89.1
"2010-11-02 00:35:00",299891,3.588,132.6,6.991,1.191,12.04,104.1517,9.9,10.9,41.97,0,110.1,13.36,10.69,94.6
"2010-11-02 00:35:30",299892,3.039,126.3,1.887,0.695,10.31,104.1561,9.91,10.73,41.78,0,110.1,13.36,10.70,88.3
"2010-11-02 00:36:00",299893,3.73,131.4,6.714,1.351,12.31,104.1593,9.92,10.84,41.88,0,110.1,13.36,10.71,93.4
"2010-11-02 00:36:30",299894,3.719,131.4,6.315,1.314,12.5,104.1625,9.93,10.88,41.94,0,110.1,13.36,10.72,93.4
"2010-11-02 00:37:00",299895,2.65,125,1.258,0.038,10.59,104.1621,9.93,10.74,41.77,0,110.1,13.4,10.72,87.0
"2010-11-02 00:37:30",299896,4.04,135.2,7.023,1.34,13.22,104.1618,9.93,10.98,42.04,0,110.1,13.37,10.71,97.2
"2010-11-02 00:38:00",299897,4.258,132.9,6.717,1.345,13.56,104.1621,9.93,11.01,41.98,0,110.1,13.37,10.72,94.9
"2010-11-02 00:38:30",299898,3.333,127.4,5.727,1.021,11.38,104.1576,9.92,10.77,41.72,0,110.1,13.37,10.70,89.4
"2010-11-02 00:39:00",299899,3.877,130.8,7.471,1.295,12.38,104.1539,9.91,10.89,41.81,0,110.1,13.37,10.69,92.8
"2010-11-02 00:39:30",299900,2.904,123.3,1.194,0.089,10.18,104.1537,9.91,10.77,41.66,0,110.1,13.4,10.69,85.3
"2010-11-02 00:40:00",299901,3.644,127.6,6.768,1.146,11.91,104.1503,9.9,10.9,41.67,0,110.1,13.37,10.69,89.6
"2010-11-02 00:40:30",299902,3.34,125.2,4.506,0.934,10.92,104.1463,9.89,10.78,41.51,0,110.1,13.37,10.67,87.2
"2010-11-02 00:41:00",299903,2.986,124.1,0.787,0.062,10.6,104.1379,9.87,10.73,41.43,0,110.1,13.41,10.65,86.1
"2010-11-02 00:41:30",299904,3.922,129.6,6.493,1.209,12.74,104.1333,9.86,10.99,41.71,0,110.1,13.37,10.64,91.6
"2010-11-02 00:42:00",299905,4.714,132.4,6.954,1.255,14.15,104.1333,9.86,10.94,41.63,0,110.1,13.37,10.64,94.4
"2010-11-02 00:42:30",299906,3.976,127.8,6.737,1.286,12.15,104.1328,9.85,10.76,41.49,0,110.1,13.37,10.64,89.8
"2010-11-02 00:43:00",299907,3.529,126.3,4.948,1.007,11.25,104.1328,9.85,10.86,41.58,0,110.1,13.37,10.64,88.3
"2010-11-02 00:43:30",299908,4.455,129.5,6.393,1.306,12.64,104.1328,9.85,10.79,41.55,0,110.1,13.37,10.64,91.5
"2010-11-02 00:44:00",299909,3.703,124.8,5.372,1.113,11.21,104.1328,9.85,10.81,41.57,0,110.1,13.37,10.64,86.8
"2010-11-02 00:44:30",299910,4.228,129.4,6.592,1.329,12.25,104.1328,9.85,10.77,41.52,0,110.1,13.37,10.64,91.4
"2010-11-02 00:45:00",299911,3.347,125.1,3.822,0.678,11.04,104.1328,9.85,10.77,41.61,0,110.1,13.37,10.64,87.1
"2010-11-02 00:45:30",299912,4.885,132.2,6.115,1.273,13.74,104.1328,9.85,10.94,41.82,0,110.1,13.37,10.64,94.2
"2010-11-02 00:46:00",299913,4.869,133.9,5.915,1.265,14.05,104.1328,9.85,10.92,41.73,0,110.1,13.37,10.64,95.9
"2010-11-02 00:46:30",299914,3.073,125.1,0.418,0.034,10.51,104.1328,9.85,10.78,41.59,0,110.1,13.41,10.64,87.1
"2010-11-02 00:47:00",299915,4.123,130.5,6.435,1.28,12.19,104.1328,9.85,10.82,41.61,0,110.1,13.37,10.64,92.5
"2010-11-02 00:47:30",299916,3.754,129.2,5.715,1.158,11.2,104.1328,9.85,10.73,41.55,0,110.1,13.37,10.64,91.2
"2010-11-02 00:48:00",299917,4.191,132.5,6.81,1.245,12.36,104.1328,9.85,10.86,41.65,0,110.1,13.37,10.64,94.5
"2010-11-02 00:48:30",299918,3.106,126.6,0.496,0.06,10.56,104.1328,9.85,10.71,41.5,0,110.1,13.4,10.64,88.6
"2010-11-02 00:49:00",299919,3.005,127.2,0.545,0.034,10.57,104.1328,9.85,10.73,41.51,0,110.1,13.41,10.64,89.2
"2010-11-02 00:49:30",299920,4.619,134.2,6.878,1.327,13.46,104.1328,9.85,10.93,41.71,0,110.1,13.37,10.64,96.2
"2010-11-02 00:50:00",299921,4.442,136,6.449,1.322,13.8,104.1325,9.85,10.98,41.76,0,110.1,13.37,10.64,98.0
"2010-11-02 00:50:30",299922,3.646,130.3,5.357,1.153,11.41,104.1322,9.85,10.78,41.57,0,110.1,13.37,10.64,92.3
"2010-11-02 00:51:00",299923,3.896,132.5,6.678,1.239,12.11,104.1319,9.85,10.79,41.57,0,110.1,13.37,10.64,94.5
"2010-11-02 00:51:30",299924,3.8,131.7,6.041,1.268,11.98,104.1302,9.85,10.87,41.65,0,110.1,13.37,10.63,93.7
"2010-11-02 00:52:00",299925,3.358,128.8,4.518,0.805,10.94,104.1285,9.84,10.82,41.5,0,110.1,13.37,10.63,90.8
"2010-11-02 00:52:30",299926,4.02,131.9,6.785,1.26,12.05,104.1255,9.83,10.72,41.3,0,110.1,13.37,10.62,93.9
"2010-11-02 00:53:00",299927,3.532,130.5,4.872,0.911,11.36,104.1238,9.83,10.72,41.26,0,110.1,13.38,10.62,92.5
"2010-11-02 00:53:30",299928,4.973,137.9,6.751,1.232,14.41,104.1218,9.83,10.91,41.43,0,110.1,13.38,10.61,99.9
"2010-11-02 00:54:00",299929,4.554,135.2,6.409,1.336,13.4,104.1187,9.82,10.98,41.46,0,110.1,13.38,10.60,97.2
"2010-11-02 00:54:30",299930,4.11,133.6,6.568,1.283,12.07,104.1167,9.81,10.75,41.26,0,110.1,13.38,10.60,95.6
"2010-11-02 00:55:00",299931,3.431,130.5,5.34,0.909,11.04,104.113,9.8,10.84,41.33,0,110.1,13.38,10.59,92.5
"2010-11-02 00:55:30",299932,4.091,133.2,6.288,1.255,11.92,104.1128,9.8,10.77,41.27,0,110.1,13.38,10.59,95.2
"2010-11-02 00:56:00",299933,4.192,133.9,6.566,1.3,12.39,104.1108,9.8,10.83,41.34,0,110.1,13.38,10.58,95.9
"2010-11-02 00:56:30",299934,3.028,128.2,0.686,0.061,10.55,104.113,9.8,10.69,41.21,0,110.1,13.42,10.59,90.2
"2010-11-02 00:57:00",299935,3.27,128.6,3.848,0.796,10.86,104.1125,9.8,10.7,41.31,0,110.1,13.38,10.59,90.6
"2010-11-02 00:57:30",299936,4.39,135.9,7.383,1.316,13.59,104.1116,9.8,10.95,41.52,0,110.1,13.38,10.59,97.9
"2010-11-02 00:58:00",299937,5.061,139.4,5.645,1.013,14.89,104.1103,9.8,10.98,41.47,0,110.1,13.38,10.58,101.4
"2010-11-02 00:58:30",299938,4.208,134.3,6.413,1.265,12.5,104.1063,9.79,10.84,41.33,0,110.1,13.38,10.57,96.3
"2010-11-02 00:59:00",299939,2.986,128.3,0.573,0.028,10.08,104.108,9.79,10.69,41.18,0,110.1,13.42,10.58,90.3
"2010-11-02 00:59:30",299940,4.014,134,7.402,1.314,12.14,104.1103,9.8,10.83,41.32,0,110.1,13.38,10.58,96.0
"2010-11-02 01:00:00",299941,2.978,128.5,2.802,0.486,10.73,104.1147,9.81,10.82,41.38,0,110.1,13.42,10.59,90.5
"2010-11-02 01:00:30",299942,2.913,128.7,0.52,0.035,10.4,104.107,9.79,10.68,41.22,0,110.1,13.42,10.57,90.7
"2010-11-02 01:01:00",299943,3.27,129.6,4.173,0.902,10.93,104.1062,9.79,10.69,41.21,0,110.1,13.39,10.57,91.6
"2010-11-02 01:01:30",299944,4.109,134.4,6.715,1.332,12.97,104.11,9.8,10.97,41.45,0,110.1,13.39,10.58,96.4
"2010-11-02 01:02:00",299945,4.897,137.5,5.595,1.118,14.49,104.1094,9.79,10.94,41.48,0,110.1,13.39,10.58,99.5
"2010-11-02 01:02:30",299946,4.016,133.9,6.651,1.33,12.9,104.1132,9.8,10.87,41.38,0,110.1,13.39,10.59,95.9
"2010-11-02 01:03:00",299947,2.891,127,0.52,0.014,10.21,104.1147,9.81,10.7,41.17,0,110.1,13.42,10.59,89.0
"2010-11-02 01:03:30",299948,3.966,131.9,6.753,1.321,12.22,104.1167,9.81,10.84,41.36,0,110.1,13.38,10.60,93.9
"2010-11-02 01:04:00",299949,2.845,126.9,0.59,0.032,10.34,104.1173,9.81,10.77,41.39,0,110.1,13.41,10.60,88.9
"2010-11-02 01:04:30",299950,2.833,127,0.6,0.036,10.39,104.118,9.82,10.69,41.24,0,110.1,13.41,10.60,89.0
"2010-11-02 01:05:00",299951,3.866,132.1,6.487,1.288,12.03,104.12,9.82,10.71,41.22,0,110.1,13.38,10.61,94.1
"2010-11-02 01:05:30",299952,4.194,134.3,7.22,1.309,12.95,104.1212,9.82,10.9,41.38,0,110.1,13.38,10.61,96.3
"2010-11-02 01:06:00",299953,4.609,135.6,6.471,1.207,14.25,104.1212,9.82,10.96,41.48,0,110.1,13.38,10.61,97.6
"2010-11-02 01:06:30",299954,4.283,134.5,7.256,1.332,12.89,104.1241,9.83,10.79,41.35,0,110.1,13.38,10.62,96.5
"2010-11-02 01:07:00",299955,3.496,130.1,5.749,1.145,11.1,104.1242,9.83,10.69,41.24,0,110.1,13.37,10.62,92.1
"2010-11-02 01:07:30",299956,3.277,130.8,5.319,1.005,11.3,104.1245,9.83,10.84,41.42,0,110.1,13.38,10.62,92.8
"2010-11-02 01:08:00",299957,3.467,130.5,5.593,1.134,11.18,104.1274,9.84,10.69,41.27,0,110.1,13.38,10.63,92.5
"2010-11-02 01:08:30",299958,2.833,126.5,0.459,0.025,10.38,104.1294,9.85,10.7,41.24,0,110.1,13.42,10.63,88.5
"2010-11-02 01:09:00",299959,3.485,130.6,5.252,1.144,11.41,104.1307,9.85,10.7,41.2,0,110.1,13.39,10.63,92.6
"2010-11-02 01:09:30",299960,4.561,137.6,6.381,1.242,13.98,104.1321,9.85,10.89,41.31,0,110.1,13.39,10.64,99.6
"2010-11-02 01:10:00",299961,4.561,137.9,6.389,1.14,13.99,104.1327,9.85,10.93,41.42,0,110.1,13.39,10.64,99.9
"2010-11-02 01:10:30",299962,3.966,134.9,6.318,1.267,12.69,104.1327,9.85,10.86,41.36,0,110.1,13.39,10.64,96.9
"2010-11-02 01:11:00",299963,2.835,129.3,0.575,0.05,10.11,104.1342,9.86,10.77,41.16,0,110.1,13.42,10.64,91.3
"2010-11-02 01:11:30",299964,3.86,134.7,6.925,1.326,12.1,104.1342,9.86,10.77,41.13,0,110.1,13.39,10.64,96.7
"2010-11-02 01:12:00",299965,3.469,134.2,6.045,1.14,11.77,104.1342,9.86,10.83,41.24,0,110.1,13.39,10.64,96.2
"2010-11-02 01:12:30",299966,2.764,131.4,0.642,0.047,10.41,104.1342,9.86,10.69,41.03,0,110.1,13.42,10.64,93.4
"2010-11-02 01:13:00",299967,3.237,132.4,4.013,0.877,10.96,104.1342,9.86,10.73,41.09,0,110.1,13.39,10.64,94.4
"2010-11-02 01:13:30",299968,4.497,138.9,6.969,1.261,13.58,104.1342,9.86,10.85,41.2,0,110.1,13.39,10.64,100.9
"2010-11-02 01:14:00",299969,4.64,139.9,5.997,1.257,14.1,104.1342,9.86,10.94,41.29,0,110.1,13.39,10.64,101.9
"2010-11-02 01:14:30",299970,4.093,137,6.562,1.313,12.33,104.1342,9.86,10.79,41.13,0,110.1,13.39,10.64,99.0
"2010-11-02 01:15:00",299971,2.883,132.1,1.077,0.043,10.04,104.1342,9.86,10.68,41,0,110.1,13.42,10.64,94.1
"2010-11-02 01:15:30",299972,3.938,139.1,6.973,1.267,12.08,104.1342,9.86,10.84,41.12,0,110.1,13.39,10.64,101.1
"2010-11-02 01:16:00",299973,2.966,133.5,0.424,0.039,10.23,104.1342,9.86,10.77,41.02,0,110.1,13.43,10.64,95.5
"2010-11-02 01:16:30",299974,2.956,134.2,0.765,0.047,10.44,104.1342,9.86,10.74,40.98,0,110.1,13.43,10.64,96.2
"2010-11-02 01:17:00",299975,4.161,139.8,6.827,1.341,12.78,104.1342,9.86,10.8,41.03,0,110.1,13.39,10.64,101.8
"2010-11-02 01:17:30",299976,4.535,143.2,6.544,1.283,14.01,104.1342,9.86,10.9,41.1,0,110.1,13.4,10.64,105.2
"2010-11-02 01:18:00",299977,4.623,143.4,6.482,1.274,13.51,104.1342,9.86,10.88,41.06,0,110.1,13.39,10.64,105.4
"2010-11-02 01:18:30",299978,3.777,139.9,7.013,1.258,12.51,104.1342,9.86,10.88,41.04,0,110.1,13.39,10.64,101.9
"2010-11-02 01:19:00",299979,4.382,142.8,6.921,1.333,12.62,104.1342,9.86,10.76,40.87,0,110.1,13.39,10.64,104.8
"2010-11-02 01:19:30",299980,3.737,141.5,6.597,1.238,12.23,104.1342,9.86,10.85,41.01,0,110.1,13.39,10.64,103.5
"2010-11-02 01:20:00",299981,3.099,136.8,2.749,0.682,10.4,104.1342,9.86,10.69,40.82,0,110.1,13.39,10.64,98.8
"2010-11-02 01:20:30",299982,2.885,137.1,0.524,0.044,10.52,104.1342,9.86,10.7,40.86,0,110.1,13.42,10.64,99.1
"2010-11-02 01:21:00",299983,4.025,144.7,7.684,1.314,13.33,104.1342,9.86,10.96,41.08,0,110.1,13.39,10.64,106.7
"2010-11-02 01:21:30",299984,4.515,147.1,6.538,1.259,14.37,104.1342,9.86,10.94,41.04,0,110.1,13.39,10.64,109.1
"2010-11-02 01:22:00",299985,3.275,140.3,4.688,1.09,10.94,104.1342,9.86,10.69,40.82,0,110.1,13.39,10.64,102.3
"2010-11-02 01:22:30",299986,3.646,144.4,5.607,1.248,12.56,104.1342,9.86,10.88,40.99,0,110.1,13.39,10.64,106.4
"2010-11-02 01:23:00",299987,3.483,143,5.958,1.193,11.09,104.1342,9.86,10.7,40.86,0,110.1,13.39,10.64,105.0
"2010-11-02 01:23:30",299988,3.712,145.2,7.994,1.325,12.33,104.1342,9.86,10.84,40.95,0,110.1,13.39,10.64,107.2
"2010-11-02 01:24:00",299989,2.685,140.3,1.549,0.06,10.23,104.1342,9.86,10.69,40.8,0,110.1,13.42,10.64,102.3
"2010-11-02 01:24:30",299990,2.574,138.1,0.816,0.048,10.36,104.1342,9.86,10.71,40.79,0,110.1,13.42,10.64,100.1
"2010-11-02 01:25:00",299991,3.958,147.3,6.966,1.336,13.64,104.1342,9.86,10.91,40.95,0,110.1,13.4,10.64,109.3
"2010-11-02 01:25:30",299992,4.063,147,6.898,1.273,13.91,104.1342,9.86,10.98,41.02,0,110.1,13.4,10.64,109.0
"2010-11-02 01:26:00",299993,3.294,142.9,5.759,1.19,11.45,104.1342,9.86,10.7,40.75,0,110.1,13.4,10.64,104.9
"2010-11-02 01:26:30",299994,3.336,144.7,6.669,1.207,12.13,104.1342,9.86,10.89,40.92,0,110.1,13.4,10.64,106.7
"2010-11-02 01:27:00",299995,3.769,147,6.765,1.319,12.47,104.1342,9.86,10.82,40.85,0,110,13.4,10.64,109.0
"2010-11-02 01:27:30",299996,3.942,149.9,6.374,1.309,13.31,104.1342,9.86,10.82,40.84,0,110.1,13.4,10.64,111.9
"2010-11-02 01:28:00",299997,2.317,144.1,2.038,0.068,10.32,104.1342,9.86,10.74,40.79,0,110.1,13.44,10.64,106.1
"2010-11-02 01:28:30",299998,2.047,145.5,2.239,0.103,10.19,104.1342,9.86,10.7,40.83,0,110.1,13.44,10.64,107.5
"2010-11-02 01:29:00",299999,2.883,148.4,5.423,1.171,11.37,104.1342,9.86,10.71,40.71,0,110.1,13.4,10.64,110.4
"2010-11-02 01:29:30",300000,3.818,150.4,6.833,1.318,13.3,104.1342,9.86,10.92,40.82,0,110.1,13.4,10.64,112.4
"2010-11-02 01:30:00",300001,2.817,148,4.293,1.225,11.86,104.1345,9.86,10.81,40.79,0,110.1,13.4,10.64,110.0
"2010-11-02 01:30:30",300002,2.075,145.1,1.543,0.082,10.12,104.1359,9.86,10.71,40.79,0,110.1,13.44,10.65,107.1
"2010-11-02 01:31:00",300003,2.287,146.9,1.161,0.084,10.15,104.1407,9.87,10.81,40.74,0,110.1,13.44,10.66,108.9
"2010-11-02 01:31:30",300004,3.998,155.3,6.362,1.249,13.97,104.139,9.87,10.95,40.92,0,110.1,13.4,10.66,117.3
"2010-11-02 01:32:00",300005,3.648,152.2,7.029,1.342,12.72,104.1407,9.87,10.85,40.81,0,110.1,13.4,10.66,114.2
"2010-11-02 01:32:30",300006,2.386,145.6,0.622,0.031,10.06,104.1356,9.86,10.73,40.59,0,110.1,13.44,10.65,107.6
"2010-11-02 01:33:00",300007,2.371,146.8,0.563,0.029,10.16,104.1342,9.86,10.72,40.58,0,110.1,13.44,10.64,108.8
"2010-11-02 01:33:30",300008,3.048,151.8,6.378,1.17,11.89,104.1342,9.86,10.9,40.76,0,110.1,13.4,10.64,113.8
"2010-11-02 01:34:00",300009,4.306,159.9,6.818,1.191,14.01,104.1342,9.86,10.92,40.83,0,110.1,13.4,10.64,121.9
"2010-11-02 01:34:30",300010,2.275,156,6.332,0.678,10.96,104.1342,9.86,10.79,40.74,0,110.1,13.4,10.64,118.0
"2010-11-02 01:35:00",300011,2.036,152.1,2.072,0.066,10.06,104.1345,9.86,10.72,40.71,0,110.1,13.44,10.64,114.1
"2010-11-02 01:35:30",300012,3.124,161.8,6.708,1.251,12.23,104.1348,9.86,10.89,40.9,0,110.1,13.4,10.65,123.8
"2010-11-02 01:36:00",300013,3.301,161.7,7.321,1.347,13.03,104.139,9.87,10.98,41,0,110.1,13.4,10.66,123.7
"2010-11-02 01:36:30",300014,2.948,161.3,7.134,1.299,12.18,104.1413,9.88,10.83,40.84,0,110.1,13.4,10.66,123.3
"2010-11-02 01:37:00",300015,1.938,156.1,1.747,0.124,9.92,104.1438,9.88,10.73,40.78,0,110.1,13.44,10.67,118.1
"2010-11-02 01:37:30",300016,2.202,156.2,1.148,0.039,10.16,104.1446,9.88,10.74,40.69,0,110.1,13.44,10.67,118.2
"2010-11-02 01:38:00",300017,2.68,162,4.866,1.077,11.18,104.1446,9.88,10.75,40.68,0,110.1,13.4,10.67,124.0
"2010-11-02 01:38:30",300018,3.83,168.8,6.426,1.286,13.68,104.1449,9.88,10.97,40.81,0,110.1,13.4,10.67,130.8
"2010-11-02 01:39:00",300019,2.905,165.9,6.512,1.124,12.37,104.1401,9.87,10.94,40.85,0,110.1,13.4,10.66,127.9
"2010-11-02 01:39:30",300020,2.062,162.2,1.597,0.061,10.2,104.1398,9.87,10.75,40.73,0,110.1,13.43,10.66,124.2
"2010-11-02 01:40:00",300021,2.96,166.3,5.431,1.247,11.33,104.1373,9.87,10.76,40.7,0,110.1,13.4,10.65,128.3
"2010-11-02 01:40:30",300022,3.657,171,6.284,1.365,13.22,104.1356,9.86,10.98,40.9,0,110.1,13.4,10.65,133.0
"2010-11-02 01:41:00",300023,3.508,171.1,6.698,1.35,13.4,104.135,9.86,10.97,41,0,110.1,13.4,10.65,133.1
"2010-11-02 01:41:30",300024,2.021,165.7,1.245,0.049,10.31,104.1342,9.86,10.73,40.79,0,110.1,13.44,10.64,127.7
"2010-11-02 01:42:00",300025,2.081,168.2,1.129,0.072,10.14,104.1342,9.86,10.75,40.88,0,110.1,13.44,10.64,130.2
"2010-11-02 01:42:30",300026,2.518,171.9,5.462,0.996,11.53,104.1342,9.86,10.87,41.09,0,110.1,13.41,10.64,133.9
"2010-11-02 01:43:00",300027,2.782,172.1,5.207,1.182,11.58,104.1342,9.86,10.82,41.06,0,110.1,13.41,10.64,134.1
"2010-11-02 01:43:30",300028,2.893,174,7.68,1.16,12.42,104.1342,9.86,10.96,41.14,0,110.1,13.41,10.64,136.0
"2010-11-02 01:44:00",300029,2.875,172.6,6.424,1.171,11.48,104.1342,9.86,10.73,40.91,0,110.1,13.41,10.64,134.6
"2010-11-02 01:44:30",300030,2.512,170.6,4.054,0.884,10.8,104.1345,9.86,10.79,41.02,0,110.1,13.41,10.64,132.6
"2010-11-02 01:45:00",300031,3.773,177.2,6.636,1.353,13.36,104.1345,9.86,10.87,41.12,0,110.1,13.41,10.64,139.2
"2010-11-02 01:45:30",300032,2.771,172.2,5.082,1.002,10.97,104.1348,9.86,10.78,41.06,0,110.1,13.41,10.65,134.2
"2010-11-02 01:46:00",300033,3.552,177.5,7.259,1.321,12.89,104.1345,9.86,10.85,41.1,0,110.1,13.41,10.64,139.5
"2010-11-02 01:46:30",300034,2.337,169.9,1.382,0.057,10.54,104.1345,9.86,10.73,41.05,0,110.1,13.45,10.64,131.9
"2010-11-02 01:47:00",300035,3.359,175.2,6.392,1.303,12.55,104.1345,9.86,10.87,41.14,0,110.1,13.41,10.64,137.2
"2010-11-02 01:47:30",300036,2.5,171.9,3.199,0.492,10.99,104.1342,9.86,10.85,41.17,0,110.1,13.45,10.64,133.9
"2010-11-02 01:48:00",300037,2.438,170.7,0.929,0.042,10.44,104.1348,9.86,10.8,41.16,0,110.1,13.45,10.65,132.7
"2010-11-02 01:48:30",300038,3.881,176.6,6.471,1.294,13.04,104.1348,9.86,10.86,41.15,0,110.1,13.41,10.65,138.6
"2010-11-02 01:49:00",300039,3.267,174.4,6.389,1.161,11.7,104.1345,9.86,10.82,41.17,0,110.1,13.41,10.64,136.4